Location: Melbourne
(37.8170°S, 144.9670°E)
Time: 02:55:00
(UTC+11:00)

Vanguard 1 Rocket - Visible Passes

Search period start: 31 October 2014 00:00
Search period end: 10 November 2014 00:00
Orbit: 654 x 4226 km, 34.3° (Epoch: 26 October)

Date Brightness Start Highest point End Pass type
(mag) Time Alt. Az. Time Alt. Az. Time Alt. Az.
31 Oct 11.6 21:17:23 10° WNW 21:26:32 16° NW 21:37:47 10° N visible
01 Nov 11.3 20:02:50 10° W 20:13:31 23° NNW 20:28:52 10° N visible
03 Nov 11.5 20:09:01 10° WNW 20:17:24 17° NW 20:28:25 10° N visible
05 Nov 11.7 20:19:15 10° NW 20:21:26 10° NW 20:23:45 10° NNW visible
